Tracking 33199 objects as of 16-Feb-2026
HD Live streaming from Space Station
objects crossing your sky now

COSMOS 839 DEB

Track COSMOS 839 DEB now!
10-day predictions


NORAD ID: 14919
Int'l Code: 1976-067BG
Perigee: 984.4 km
Apogee: 2,125.0 km
Inclination: 65.8 °
Period: 117.0 minutes
Semi major axis: 7925 km
RCS: 0.0133 m2 (small)
Launch date: July 8, 1976
Source: Commonwealth of Independent States (former USSR) (CIS)
Launch site: PLESETSK MISSILE AND SPACE COMPLEX (PKMTR)

Note: This is SATELLITE DEBRIS
Your satellite tracking list
Your tracking list is empty




NASA's NSSDC Master Catalog

Two Line Element Set (TLE):
1 14919U 76067BG  26046.82135459 -.00000034  00000-0  72345-4 0  9998
2 14919  65.8023 216.7353 0719604 141.2120 332.7089 12.30398156619618
Source of the keplerian elements: AFSPC